Location: Bron Breck
(40.6655°N, 111.8083°W)
Time: 05:06:11
(UTC+00:00)

ISS - Pass Details

Date: 12 March 2021
Orbit: 418 x 422 km, 51.6° (Epoch: 16 April)

Event Time Altitude Azimuth Distance (km) Brightness Sun altitude
Exits shadow 11:00:40 12° 86° (E) 1,389 -0.4 -30.9°
Drops below altitude 10° 11:00:58 10° 88° (E) 1,494 -0.2 -30.8°
Sets 11:03:14 0° 100° (E) 2,356 0.8 -30.4°
